User: anonymous   Login
Location: Unspecified
(0.0000°N, 0.0000°E)
Time: 01:35:48
(UTC+00:00)
Language:

ORS 1 (USA 231) - Orbit

View from above orbital plane
View from above orbital plane
View from above satellite
View from above satellite

Ground track
Ground track

The orbit data is extracted from the following two-line orbital elements,

1 37728U 11029A   17115.80877209 0.00034000  00000-0  33044-3 0    03
2 37728  39.9989  62.1402 0003000  34.0134 325.9859 15.65312960    08
Epoch (UTC): 25 April 2017 19:24:37
Eccentricity: 0.0003000
inclination: 39.9989°
perigee height: 370 km
apogee height: 374 km
right ascension of ascending node: 62.1402°
argument of perigee: 34.0134°
revolutions per day: 15.65312960
mean anomaly at epoch: 325.9859°
orbit number at epoch: 0

The dashed part of the orbit path shows where the satellite is in the earth's shadow,  

DLR